sat.trackr.live / text

‹ back to catalog

GONETS-M 23

NORAD 54150 · 2022-139A

PAYLOAD ACTIVE UNKNOWN

§ Identity

Operator
Country
CIS
Launch date
2022-10-22
Launch site
VOSTO
Launch vehicle
Mass (kg)
RCS (m²)

External: N2YO · Heavens-Above · Gunter

§ Orbital elements

Epoch: 2026-05-25T03:50:36.896064Z

Period
115.86 min
Inclination
82.5083°
Eccentricity
0.0020526
Mean motion
12.42889920 rev/d
Perigee alt
1,478.2 km
Apogee alt
1,510.5 km
Semi-major
7,872.5 km
B*
3.9829e-4
RAAN
2.6069°
Arg perigee
272.6237°
Mean anomaly
87.2493°
Rev number
16,278

§ Raw data

GONETS-M 231 54150U 22139A   26145.16014926  .00000065  00000+0  39829-3 0  99932 54150  82.5083   2.6069 0020526 272.6237  87.2493 12.42889920162782

JSON: /api/v1/satellites/54150 · /tle

For live sub-satellite position, see the globe view (requires WebGL).

§ Visibility from observer

Set your observer location to see the next 7 days of passes ≥ 10°. The values pass through the URL so the page stays shareable.

No JS? Fill the form by hand. The geolocation button needs JavaScript.

§ Radio — SatNOGS DB

ModeDescriptionDownlinkUplink
FM UHF Unknown 387.175 MHz
FM UHF Unknown 387.775 MHz
FM UHF Unknown 388.687 MHz
FM UHF Unknown 388.787 MHz

4 transmitters · refreshed weekly from db.satnogs.org